Regional Weather Roundup
Issued by NWS Wakefield, VA

Home | Current Version | Previous Version | Text Only | Print | Product List | Glossary On
Versions: 1 2 3 4 5 6 7 8 9 10 11 12 13 14 15 16 17 18 19 20 21 22 23 24 25 26 27 28 29 30 31 32 33 34 35 36 37 38 39 40 41 42 43 44 45 46 47 48 49 50
000
ASUS41 KAKQ 261115
RWRAKQ

REGIONAL WEATHER ROUNDUP
NATIONAL WEATHER SERVICE WAKEFIELD VA
700 AM EDT SUN APR 26 2015

Note: "fair" indicates few or no clouds below 12,000 feet with no
significant weather and/or obstructions to visibility. * = Denotes
station may not report precipitation (e.g., rain,snow,etc.),
thunder or fog.

VAZ042-051-052>054-056-261200-
NORTHERN VIRGINIA

CITY           SKY/WX    TMP DP  RH WIND       PRES   REMARKS
WASH NATIONAL  CLOUDY    46  40  79 NW6       29.70R
DULLES         CLOUDY    42  39  89 NW3       29.70R
FORT BELVOIR   CLOUDY    43  40  89 NW5       29.70R
QUANTICO       LGT RAIN  44  39  82 N5        29.71R
FREDERICKSBRG* CLOUDY    43  43 100 N6        29.69S
STAFFORD*      LGT RAIN  41  32  70 CALM      29.74R
WARRENTON      CLOUDY    43  42  97 CALM      29.70R
CULPEPER*      LGT RAIN  43  43 100 CALM      29.70S
MANASSAS*      CLOUDY    43  43 100 N3        29.70R
LEESBURG*      CLOUDY    43  41  93 CALM      29.71R
WINCHESTER     CLOUDY    41  37  87 CALM      29.70R FOG
FRONT ROYAL*   CLOUDY    39  37  93 CALM      29.70R
LURAY*         DRIZZLE   41  41 100 NE6       29.70R
$$

VAZ048-049-060>072-079>083-261200-
CENTRAL AND SOUTH CENTRAL VIRGINIA

CITY           SKY/WX    TMP DP  RH WIND       PRES   REMARKS
RICHMOND       LGT RAIN  44  42  93 NE12      29.63F
CHESTERFIELD*  CLOUDY    45  32  61 NE5       29.66S
PETERSBURG*    LGT RAIN  46  44  95 NE7       29.66R
HANOVER        LGT RAIN  43  41  93 N7        29.67F FOG
TAPPAHANNOCK*  LGT RAIN  45  41  88 CALM      29.67F
QUINTON*       CLOUDY    43  42  97 CALM      29.65F
CHARLOTTSVILLE LGT RAIN  41  39  93 N5        29.68R FOG
GORDONSVILLE*  CLOUDY    40  38  94 NE3       29.68R FOG
ORANGE*        RAIN      41  41 100 N5        29.70R
LOUISA*        LGT RAIN  43  39  87 N7        29.66R
BUMPASS*       CLOUDY    42  41  97 N3        29.67R
FARMVILLE*     LGT RAIN  44  44 100 N3        29.68R
CREWE*         CLOUDY    43  41  95 CALM      29.67R
FORT PICKETT*  CLOUDY    43  42  98 N7        29.66R
CHASE CITY*    CLOUDY    45  45 100 N5        29.66R
CLARKSVILLE*   CLOUDY    45  43  93 N6        29.66R
SOUTH HILL*    CLOUDY    44  43  96 N5        29.70R
LAWRENCEVILLE* CLOUDY    44  44  99 NE5       29.63R
EMPORIA*       CLOUDY    45  45 100 N3        29.66R
$$

VAZ088>098-261200-
SOUTHEAST VIRGINIA

CITY           SKY/WX    TMP DP  RH WIND       PRES   REMARKS
NORFOLK        LGT RAIN  47  43  86 NE15      29.61F
VIRGINIA BEACH LGT RAIN  48  43  82 NE10      29.62S
NORFOLK NAVAL  LGT RAIN  49  44  83 NE10      29.65R
WEST POINT*    CLOUDY    46  44  91 CALM      29.67F
SALUDA*        CLOUDY    45  43  93 CALM      29.65F
NEWPORT NEWS   LGT RAIN  49  43  80 NE13      29.63S
LANGLEY AFB    LGT RAIN  46  44  91 NE13      29.63S
FORT EUSTIS    DRIZZLE   46  46 100 VRB5      29.62S
WILLIAMSBURG*  CLOUDY    48  48 100 NE3       29.64F
HR EXEC AP*    CLOUDY    48  45  87 NE7       29.65R
FRANKLIN*      RAIN      46  45  95 NE10      29.62F
WAKEFIELD      LGT RAIN  46  44  93 VRB6      29.64R
$$

VAZ020-022-025-037-045-261200-
WEST CENTRAL AND SOUTHWEST VIRGINIA

CITY           SKY/WX    TMP DP  RH WIND       PRES   REMARKS
STAUNTON*      LGT RAIN  40  38  91 N5        29.69R
WAYNESBORO*    CLOUDY    39  38  99 N3        29.66R
HOT SPRINGS VA SNOW      34  34 100 E7        29.59R VSB<1/4
LYNCHBURG      LGT RAIN  41  40  96 N6        29.69R
DANVILLE       CLOUDY    44  41  89 NE7       29.66R
SOUTH BOSTON*  CLOUDY    43  42  95 N3        29.66R
MARTINSVILLE   MIX PCPN  43  43 100 N6        29.69R
ROANOKE        CLOUDY    42  41  96 NE5       29.69R
BLACKSBURG     RAIN      39  38  98 E5        29.67R
DUBLIN*        RAIN      42  42 100 E5        29.65R
MARION*        CLOUDY    45  44  94 NE3       29.63R
HILLSVILLE*    FOG       42  42 100 N3        29.60R VSB 1/4
RICHLANDS*     LGT RAIN  51  36  56 NW8       29.61R VSB<1/4
WISE*          FOG       48  48 100 N8        29.64R VSB<1/4
ABINGDON*      CLOUDY    59  58  98 W6        29.59S
$$

MDZ021>025-VAZ099-100-261200-
SOUTHERN MARYLAND AND THE DELMARVA PENINSULA

CITY           SKY/WX    TMP DP  RH WIND       PRES   REMARKS
PATUXENT RIVER CLOUDY    45  40  82 NE6       29.68S
BAY BRIDGE APT   N/A    N/A N/A N/A W6        29.68S
LEONARDTOWN    CLOUDY    43  41  93 CALM      29.69S
DOVER          CLOUDY    45  41  87 NW8       29.63R
GEORGETOWN     CLOUDY    42  40  92 CALM      29.67S
EASTON         PTCLDY    45  45 100 CALM      29.71R
CAMBRIDGE      CLOUDY    45  41  87 CALM      29.67F
SALISBURY      LGT RAIN  42  40  92 CALM      29.67R
OCEAN CITY     CLOUDY    42  40  92 NW5       29.67R
WALLOPS ISLAND CLOUDY    45  41  86 N3        29.66S
ACCOMACK*      RAIN      45  32  61 E6        29.64F
$$

NCZ012>017-030>032-261200-
NORTH CENTRAL AND EASTERN NORTH CAROLINA

CITY           SKY/WX    TMP DP  RH WIND       PRES   REMARKS
ROANOKE RAPIDS CLOUDY    45  45 100 NE3       29.62R
RALEIGH        CLOUDY    46  45  93 NE5       29.63R FOG
ELIZABETH CITY CLOUDY    48  45  89 N17       29.61S
AHOSKIE*       CLOUDY    46  45  94 N5        29.64R
EDENTON*       CLOUDY    46  45  94 NE8       29.62R
CURRITUCK*     CLOUDY    47  45  90 NE12G20   29.62S
KILL DEVIL HLS CLOUDY    47  47 100 NE12G21   29.57F
MANTEO         CLOUDY    48  47  96 NE17G24   29.58F
CAPE HATTERAS  CLOUDY    51  51 100 NE10G20   29.57R
TARBORO*       CLOUDY    48  47  95 NE6       29.63R
GOLDSBORO      CLOUDY    48  48 100 VRB5      29.58R FOG
WASHINGTON     LGT RAIN  49  48  97 NE8       29.60S
GREENVILLE     CLOUDY    48  48 100 NE7       29.64S FOG
NEW BERN       CLOUDY    53  52  96 NE8       29.59R FOG
WILMINGTON     CLOUDY    62  61  96 NE8       29.55R FOG
$$

VAZ048-261200-
ELSEWHERE

CITY           SKY/WX    TMP DP  RH WIND       PRES   REMARKS
HARRISBURG PA  MOCLDY    42  32  67 NW7       29.70R
BALTIMORE      CLOUDY    42  38  85 VRB5      29.68R
ANNAPOLIS      CLOUDY    44  39  82 NW6       29.68R
ANDREWS AFB    CLOUDY    43  41  93 NW5       29.67S
PHILADELPHIA   CLOUDY    49  28  44 NE13G22   29.68S
HENDERSON NC   CLOUDY    45  43  94 N6        29.64R
GREENSBORO     DRIZZLE   43  42  97 N8        29.63R FOG
ROCKY MOUNT    CLOUDY    48  47  96 NE6       29.62R FOG
$$

VAZ100-261200-
MARINE

STATION/POSITION TIME  TEMP    WIND        PRES    WAVE   SWELL
                       AIR SEA DIR/SP/G            HT/PER HT/PER
                 (UTC) (F)     (DEG/KT/KT) (MB)    (FT/S) (FT/S)
BRANDYWINE LGT   1000   46 51  320/  8/  9 1004.3S
CAPE MAY NJ      1000   47 54  320/  4/ 12 1003.8F
LEWES DE         1000   45 51  310/  9/ 10 1004.4R
15NM E FENWICK I 1050   46 47              1003.9R   1
OCEAN-CITY-INLET 1000   44 50  350/  5/  6 1003.9R
WACHAPREAGUE VA  1000   46 53   60/ 10/ 13 1003.9S
THOMAS POINT MD  1100   44 51  320/  8/  9 1005.7S
GOOSES REEF MD   1100   45 51  340/  6/  8   N/A
COVE POINT MD    1000   45      60/  6/  8 1005.6R
SOLOMONS ISLAND  1000      54                N/A
BISHOPS HEAD MD  1000   45 52   20/  3/  5 1004.4R
PINEY POINT MD   1000           30/  8/ 10   N/A
CAMBRIDGE MD     1000   45 57  350/  7/  8 1004.8R
LEWISETTA VA     1000   47 56              1004.1R
RAPPAHANNOCK LGT 1000           60/ 11/ 12 1004.5R
YORK RVR RNG VA  1000   47      70/ 18/ 20 1002.6F
YORKTOWN VA      1000   47 59   50/ 12/ 16 1003.1F
JAMESTOWN VA     1100   45 63   50/  6/  8 1002.6F
DOMINION TERM VA 1000   47      50/  9/ 14 1003.0F
KIPTOPEKE VA     1000      61   50/  4/  8   N/A
CHES BAY BRIDGE  1000   47 53   30/ 18/ 21 1002.5F
CAPE HENRY VA    1000   47      40/ 18/ 20 1001.8F
CHESAPEAKE LGHT  1000   46      40/ 20/ 21 1003.5F
WILLOUBY STN VA  1000   47      40/ 16/ 18 1003.6F
S CRANEY ISL VA  1000           40/ 14/ 17 1002.9F
CAPE HENRY BUOY  1028      51                N/A     4/ 5
1ST LANDING BUOY 1100                      1003.5R   3/ 3
OFFSHORE WE BUOY 1011      50                N/A     5/ 5   2/11
64NM E OF VA BCH 1050   53 59   40/ 21/ 23 1001.1F   6/ 6
DUCK PIER NC     1000   47 54   20/ 21/ 24 1001.3R
44056 DUCK FRF   1011      54                N/A     5/ 6
OREGON INLET NC  1000   49 55  360/ 14/ 19 1001.9R
HATTERAS NC      1000   56 65   20/ 17/ 23 1000.2R
DIAMOND SHLS NC  1050   60 68   20/ 16/ 19 1000.3R   4/ 8   3/ 8
CAPE LOOKOUT NC  1100   58      10/  8/ 10 1000.7R
$$


USA.gov is the U.S. government's official web portal to all federal, state and local government web resources and services.